Lancaster, PA

12:03 PM EDT on October 17, 2019 (GMT -0400)
Lancaster

Weather History for KLNS - September, 2019

Change the Weather History Date:

Wednesday, September 18, 2019

  Actual Average Record
Temperature  
Mean Temperature 64 °F -  
Max Temperature 75 °F 76 °F 91 °F (1991)
Min Temperature 54 °F 53 °F 34 °F (1986)
Growing Degree Days 14 (Base 50)    
Moisture  
Dew Point 48 °F    
Average Humidity 57    
Maximum Humidity 77    
Minimum Humidity 36    
Precipitation  
Precipitation 0.00 in - - ()
Sea Level Pressure  
Sea Level Pressure 30.21 in    
Wind  
Wind Speed 6 mph (ENE)    
Max Wind Speed 10 mph    
Max Gust Speed -    
Visibility 10 miles    
Events      
Averages and records for this station are not official NWS values.
T = Trace of Precipitation, MM = Missing Value Source: NWS Daily Summary

Daily Weather History Graph

Daily Weather History Graph

Search for Another Location

Airport or City:

Astronomy

Sep. 18, 2019 Rise Set
Actual Time 6:48 AM EDT 7:09 PM EDT
Civil Twilight 6:21 AM EDT 7:36 PM EDT
Nautical Twilight 5:49 AM EDT 8:08 PM EDT
Astronomical Twilight 5:16 AM EDT 8:40 PM EDT
Moon 9:42 PM EDT (9/18) 10:49 AM EDT (9/18)
Length of Visible Light 13h 14m
Length of Day
12h 20m
Waning Gibbous, 82% of the Moon is Illuminated
Sep 18
Waning Gibbous
Sep 21
Last Quarter
Sep 28
New
Oct 5
First Quarter
Oct 13
Full

Hourly Weather History & Observations

Time (EDT) Temp. Dew Point Humidity Pressure Visibility Wind Dir Wind Speed Gust Speed Precip Events Conditions
12:53 AM 63.0 °F 46.9 °F 56% 30.14 in 10.0 mi NNE 8.1 mph - N/A   Clear
1:53 AM 60.1 °F 46.9 °F 62% 30.15 in 10.0 mi ENE 6.9 mph - N/A   Clear
2:53 AM 57.0 °F 46.9 °F 69% 30.16 in 10.0 mi NE 4.6 mph - N/A   Clear
3:53 AM 57.9 °F 46.0 °F 65% 30.16 in 10.0 mi ENE 4.6 mph - N/A   Clear
4:53 AM 55.9 °F 46.0 °F 69% 30.16 in 10.0 mi East 3.5 mph - N/A   Clear
5:53 AM 54.0 °F 46.0 °F 75% 30.18 in 10.0 mi East 3.5 mph - N/A   Clear
6:53 AM 54.0 °F 46.0 °F 75% 30.20 in 10.0 mi East 3.5 mph - N/A   Clear
7:53 AM 57.0 °F 48.9 °F 74% 30.22 in 10.0 mi East 3.5 mph - N/A   Clear
8:53 AM 62.1 °F 48.0 °F 60% 30.24 in 10.0 mi NE 8.1 mph - N/A   Clear
9:53 AM 66.0 °F 48.9 °F 54% 30.24 in 10.0 mi NE 6.9 mph - N/A   Clear
10:53 AM 69.1 °F 50.0 °F 51% 30.24 in 10.0 mi Variable 4.6 mph - N/A   Clear
11:53 AM 72.0 °F 51.1 °F 48% 30.23 in 10.0 mi NNE 9.2 mph - N/A   Partly Cloudy
12:53 PM 73.0 °F 48.9 °F 42% 30.22 in 10.0 mi Calm Calm - N/A   Partly Cloudy
1:53 PM 75.0 °F 50.0 °F 41% 30.22 in 10.0 mi NE 9.2 mph - N/A   Clear
2:53 PM 73.9 °F 48.9 °F 41% 30.21 in 10.0 mi East 4.6 mph - N/A   Partly Cloudy
3:53 PM 75.0 °F 50.0 °F 41% 30.21 in 10.0 mi East 8.1 mph - N/A   Partly Cloudy
4:53 PM 75.0 °F 46.0 °F 36% 30.21 in 10.0 mi NE 10.4 mph - N/A   Partly Cloudy
5:53 PM 72.0 °F 46.9 °F 41% 30.21 in 10.0 mi NE 9.2 mph - N/A   Clear
6:53 PM 66.0 °F 48.0 °F 52% 30.22 in 10.0 mi East 4.6 mph - N/A   Clear
7:53 PM 64.9 °F 46.0 °F 50% 30.24 in 10.0 mi Calm Calm - N/A   Clear
8:53 PM 61.0 °F 48.0 °F 62% 30.25 in 10.0 mi Calm Calm - N/A   Clear
9:53 PM 61.0 °F 46.9 °F 60% 30.26 in 10.0 mi Calm Calm - N/A   Clear
10:53 PM 55.0 °F 48.0 °F 77% 30.29 in 10.0 mi East 5.8 mph - N/A   Clear
11:53 PM 57.0 °F 48.9 °F 74% 30.30 in 10.0 mi East 3.5 mph - N/A   Clear